20050701,152453,240999,32.672175,-117.229024,19.274,2.183,0.236,0.171
20050701,153508,241614,32.645222,-117.229514,19.275,2.183,0.235,0.171
20050701,154538,242244,32.620790,-117.247055,19.283,2.184,0.235,0.174
20050701,155553,242859,32.626935,-117.271157,19.291,2.185,0.236,0.178
20050701,160553,243459,32.652993,-117.285575,19.303,2.185,0.233,0.177
20050701,161553,244059,32.678975,-117.299228,19.314,2.185,0.236,0.179
20050701,162553,244659,32.704980,-117.312032,19.327,2.185,0.235,0.181
20050701,163553,245259,32.730709,-117.324665,19.348,2.185,0.235,0.182
20050701,164608,245874,32.757818,-117.331800,18.842,12.789,1.272,2.275
20050701,165624,246490,32.786036,-117.327257,16.992,33.084,1.823,3.384
20050701,170624,247090,32.813819,-117.323041,16.270,33.105,2.284,4.686
20050701,171624,247690,32.842070,-117.318982,18.067,33.256,2.242,4.662
20050701,172624,248290,32.870465,-117.314355,18.060,33.458,1.876,3.487
20050701,173624,248890,32.899063,-117.309061,18.188,33.490,1.995,3.859
20050701,174640,249506,32.928592,-117.302725,18.064,33.442,1.995,3.952
20050701,175655,250121,32.952860,-117.296974,17.773,33.529,2.072,4.216
20050701,180655,250721,32.954729,-117.296777,17.650,33.434,2.026,4.068
20050701,181710,251336,32.952832,-117.296688,17.697,33.443,2.032,3.953
20050701,182725,251951,32.951091,-117.296551,17.741,33.448,1.965,3.864
20050701,183725,252551,32.949330,-117.296092,17.769,33.446,1.919,3.970
20050701,184740,253166,32.947317,-117.295284,17.848,33.439,1.824,3.943
20050701,185810,253796,32.944691,-117.295237,18.012,33.426,1.811,3.828
20050701,190826,254412,32.940923,-117.297049,18.210,33.393,1.709,3.791
20050701,191826,255012,32.937091,-117.298555,18.361,33.356,1.561,3.484
20050701,192841,255627,32.933832,-117.298098,18.447,33.307,1.564,3.574
20050701,193856,256242,32.944769,-117.278993,17.511,33.269,4.627,20.414
20050701,194911,256857,32.947229,-117.276720,17.199,33.160,9.721,56.476
20050701,195941,257487,32.945264,-117.282753,17.597,33.211,2.045,4.913
20050701,200956,258102,32.942758,-117.284743,17.785,33.323,1.756,4.209
20050701,201956,258702,32.940368,-117.286454,18.010,33.352,1.623,3.642
20050701,202956,259303,32.938065,-117.287808,18.317,33.375,1.465,3.332
20050701,203957,259903,32.942221,-117.292155,18.371,33.397,1.546,3.488
20050701,204957,260503,32.965660,-117.306029,18.182,33.422,1.415,3.121
20050701,210012,261118,32.991432,-117.319972,18.347,33.448,1.390,3.043
20050701,211027,261733,33.017554,-117.333490,18.163,33.463,1.357,2.904
20050701,212042,262348,33.043888,-117.347030,17.850,33.461,1.341,2.738
20050701,213112,262978,33.070271,-117.361957,17.910,33.435,1.328,2.992
20050701,214127,263593,33.095522,-117.377574,18.210,33.461,1.520,3.333
20050701,215127,264193,33.121063,-117.392076,18.240,33.445,1.509,3.288
20050701,220127,264794,33.146138,-117.407821,17.791,33.490,1.436,2.979
20050701,221143,265409,33.170920,-117.426322,16.767,33.472,5.713,28.084
20050701,222213,266039,33.197383,-117.442257,15.908,33.464,7.240,33.170
20050701,223228,266654,33.224113,-117.454610,16.328,33.416,2.294,5.767
20050701,224228,267254,33.243546,-117.462121,16.608,33.380,1.962,4.557
20050701,225243,267869,33.244022,-117.463951,17.031,33.435,1.895,4.364
20050701,230258,268484,33.242788,-117.464778,16.899,33.442,1.783,3.904
20050701,231258,269084,33.241067,-117.467349,16.719,33.452,1.809,3.837
20050701,232259,269685,33.238665,-117.470342,16.899,33.439,1.864,4.051
20050701,233300,270286,33.225425,-117.471306,16.581,33.431,1.939,4.141
20050701,234300,270886,33.196149,-117.473617,17.110,33.420,1.937,4.078
20050701,235300,271486,33.166213,-117.477845,17.273,33.427,1.862,3.626
20050702,000315,272101,33.135386,-117.481903,17.529,33.443,1.826,3.519
20050702,001330,272716,33.104889,-117.482500,17.888,33.432,2.340,5.060
20050702,002330,273316,33.076491,-117.470539,18.576,33.426,1.877,3.595
20050702,003332,273918,33.048069,-117.457532,18.938,33.447,2.063,3.986
20050702,004333,274519,33.019338,-117.444671,19.079,33.459,1.942,3.491
20050702,005335,275121,32.990798,-117.430840,18.592,33.482,1.591,2.571
20050702,010336,275722,32.961891,-117.416759,18.122,33.433,1.390,2.095
20050702,011337,276323,32.937419,-117.405819,18.263,33.429,1.359,2.008
20050702,012337,276923,32.917075,-117.396963,18.238,33.431,1.151,1.575
20050702,013353,277539,32.908285,-117.395121,18.162,33.461,1.005,1.282
20050702,014408,278154,32.907125,-117.397467,18.175,33.469,0.989,1.248
20050702,015423,278769,32.907252,-117.400518,18.192,33.467,0.979,1.218
20050702,020453,279399,32.906672,-117.401671,18.193,33.467,0.937,1.135
20050702,021508,280014,32.906190,-117.403130,18.186,33.469,0.922,1.100
20050702,022523,280629,32.906278,-117.406133,18.199,33.471,0.896,1.049
20050702,023538,281245,32.905951,-117.407987,18.161,33.473,0.863,0.992
20050702,024539,281845,32.905611,-117.409568,18.175,33.470,0.832,0.940
20050702,025554,282460,32.906217,-117.413903,18.167,33.473,0.820,0.918
20050702,030624,283090,32.907162,-117.418588,18.101,33.470,0.762,0.826
20050702,031640,283706,32.908002,-117.423377,18.085,33.472,0.745,0.800
20050702,032640,284306,32.907636,-117.429684,18.010,33.469,0.723,0.767
20050702,033655,284921,32.907875,-117.433275,18.023,33.467,0.702,0.736
20050702,034725,285551,32.907824,-117.438364,18.043,33.467,0.681,0.704
20050702,035740,286166,32.899098,-117.452293,18.073,33.460,0.624,0.624
20050702,040755,286781,32.880169,-117.481364,18.177,33.449,0.574,0.555
20050702,041825,287411,32.859842,-117.510738,18.667,33.430,0.610,0.604
20050702,042855,288042,32.846414,-117.532371,19.020,33.409,0.662,0.678
20050702,043911,288657,32.845303,-117.534550,18.988,33.460,0.656,0.669
20050702,044911,289257,32.844903,-117.535434,18.977,33.457,0.653,0.665
20050702,045911,289857,32.844686,-117.536257,19.006,33.461,0.642,0.649
20050702,050911,290457,32.844293,-117.536757,19.008,33.460,0.640,0.646
20050702,051926,291072,32.844280,-117.537703,18.995,33.461,0.624,0.623
20050702,052941,291687,32.844184,-117.538446,18.994,33.460,0.623,0.622
20050702,053956,292302,32.845105,-117.540327,19.006,33.459,0.625,0.624
20050702,055012,292918,32.849838,-117.543016,18.939,33.462,0.623,0.621
20050702,060027,293533,32.853587,-117.545772,18.916,33.457,0.637,0.641
20050702,061042,294148,32.855246,-117.551395,18.883,33.461,0.632,0.635
20050702,062057,294763,32.855676,-117.555919,18.836,33.457,0.626,0.626
20050702,063112,295378,32.856271,-117.559801,18.808,33.456,0.630,0.631
20050702,064127,295993,32.851533,-117.569385,18.869,33.441,0.615,0.610
20050702,065142,296608,32.835728,-117.597292,19.305,33.434,0.483,0.436
20050702,070142,297208,32.818801,-117.626911,19.425,33.435,0.416,0.353
20050702,071143,297809,32.801905,-117.656872,19.539,33.441,0.397,0.331
20050702,072158,298424,32.784939,-117.687735,19.676,33.458,0.368,0.298
20050702,073213,299039,32.768234,-117.718983,19.768,33.482,0.378,0.310
20050702,074228,299654,32.751641,-117.750323,19.730,33.486,0.422,0.361
20050702,075258,300284,32.734381,-117.782090,19.582,33.494,0.415,0.353
20050702,080313,300899,32.712561,-117.807463,19.324,33.490,0.397,0.333
20050702,081328,301514,32.695276,-117.837371,19.293,33.503,0.320,0.247
20050702,082343,302129,32.683466,-117.866602,19.350,33.439,0.316,0.241
20050702,083344,302730,32.681145,-117.874851,19.384,33.502,0.331,0.257
20050702,084345,303331,32.681343,-117.877992,19.390,33.511,0.327,0.253
20050702,085345,303931,32.682043,-117.880635,19.398,33.512,0.327,0.253
20050702,090400,304546,32.683058,-117.883142,19.400,33.512,0.324,0.250
20050702,091415,305161,32.684164,-117.885713,19.403,33.512,0.325,0.251
20050702,092430,305776,32.685540,-117.888439,19.408,33.513,0.325,0.251
20050702,093500,306406,32.686896,-117.891487,19.411,33.512,0.325,0.251
20050702,094530,307036,32.688138,-117.894656,19.411,33.512,0.327,0.253
20050702,095545,307651,32.689617,-117.899265,19.411,33.512,0.330,0.256
20050702,100545,308251,32.691401,-117.904567,19.397,33.504,0.337,0.264
20050702,101600,308866,32.693149,-117.909955,19.398,33.499,0.340,0.267
20050702,102616,309482,32.694515,-117.914238,19.389,33.494,0.343,0.271
20050702,103616,310082,32.695566,-117.917701,19.394,33.496,0.339,0.266
20050702,104631,310697,32.688433,-117.929053,19.369,33.492,0.386,0.320
20050702,105646,311312,32.667129,-117.954071,19.417,33.489,0.453,0.398
20050702,110701,311927,32.645078,-117.979567,19.336,33.503,0.427,0.366
20050702,111731,312557,32.623858,-118.007378,19.147,33.520,0.328,0.255
20050702,112746,313172,32.606859,-118.038047,18.988,33.534,0.282,0.206
20050702,113746,313772,32.590636,-118.068303,18.823,33.532,0.299,0.224
20050702,114746,314373,32.574964,-118.098314,18.727,33.514,0.308,0.234
20050702,115747,314973,32.559241,-118.128412,18.626,33.521,0.306,0.232
20050702,120747,315573,32.543605,-118.158038,18.482,33.512,0.314,0.239
20050702,121802,316188,32.527449,-118.188216,18.429,33.518,0.323,0.249
20050702,122817,316803,32.515642,-118.212325,18.300,33.471,0.346,0.274
20050702,123817,317403,32.516419,-118.216280,18.243,33.507,0.359,0.288
20050702,124817,318003,32.518187,-118.218465,18.238,33.510,0.360,0.289
20050702,125817,318603,32.519251,-118.219279,18.236,33.511,0.356,0.285
20050702,130832,319218,32.520298,-118.220074,18.239,33.511,0.357,0.286
20050702,131847,319833,32.522593,-118.220620,18.225,33.511,0.361,0.292
20050702,132847,320433,32.524999,-118.222212,18.232,33.511,0.356,0.286
20050702,133848,321034,32.526474,-118.223108,18.227,33.511,0.360,0.291
20050702,134848,321634,32.529052,-118.223661,18.222,33.510,0.367,0.300
20050702,135848,322234,32.532150,-118.227403,18.227,33.510,0.368,0.302
20050702,140903,322849,32.535233,-118.231614,18.209,33.512,0.360,0.295
20050702,141918,323464,32.538506,-118.236568,18.092,33.508,0.364,0.302
20050702,142918,324064,32.541387,-118.240136,18.051,33.497,0.374,0.314
20050702,143918,324664,32.544665,-118.243637,18.007,33.498,0.376,0.318
20050702,144918,325264,32.543495,-118.250793,17.928,33.495,0.384,0.329
20050702,145919,325865,32.530231,-118.273413,17.771,33.483,0.417,0.369
20050702,150934,326480,32.513167,-118.301503,17.521,33.478,0.446,0.412
20050702,151949,327095,32.495397,-118.329314,17.380,33.466,0.461,0.431
20050702,153004,327710,32.476951,-118.356387,17.209,33.449,0.477,0.453
20050702,154034,328340,32.457641,-118.384159,16.838,33.439,0.511,0.512
20050702,155049,328955,32.438312,-118.411801,16.904,33.458,0.426,0.396
20050702,160050,329556,32.419374,-118.438777,16.606,33.448,0.740,0.864
20050702,161050,330156,32.400964,-118.466462,16.747,33.432,0.778,0.925
20050702,162105,330771,32.382700,-118.495674,16.831,33.442,0.661,0.741
20050702,163120,331386,32.364345,-118.525106,16.608,33.488,0.751,0.914
20050702,164120,331986,32.348706,-118.550326,16.279,33.479,0.868,1.109
20050702,165120,332586,32.347193,-118.554666,16.030,33.435,0.818,1.021
20050702,170120,333186,32.347397,-118.557116,16.051,33.468,0.836,1.071
20050702,171120,333786,32.346139,-118.561488,16.037,33.476,0.824,1.055
20050702,172135,334402,32.346250,-118.565180,16.003,33.480,0.770,0.988
20050702,173151,335017,32.347622,-118.562440,16.021,33.475,0.744,0.966
20050702,174151,335617,32.345504,-118.561896,16.012,33.488,0.703,0.927
20050702,175206,336232,32.345047,-118.562231,16.008,33.484,0.661,0.850
20050702,180221,336847,32.346355,-118.560227,16.024,33.485,0.687,0.861
20050702,181236,337462,32.347003,-118.557542,16.043,33.482,0.758,0.991
20050702,182306,338092,32.346394,-118.555376,16.051,33.480,0.743,0.972
20050702,183321,338707,32.345177,-118.554548,16.049,33.482,0.744,1.023
20050702,184321,339307,32.343971,-118.553944,16.051,33.486,0.724,0.967
20050702,185321,339907,32.341196,-118.557212,16.037,33.492,0.658,0.887
20050702,190321,340508,32.328494,-118.581204,15.864,33.389,0.519,0.676
20050702,191322,341108,32.313492,-118.610585,15.949,33.371,0.480,0.644
20050702,192322,341708,32.298951,-118.640355,15.999,33.385,0.505,0.688
20050702,193337,342323,32.284119,-118.670869,15.914,33.414,0.515,0.686
20050702,194352,342938,32.268736,-118.700320,16.010,33.397,0.420,0.546
20050702,195352,343538,32.253498,-118.729466,15.997,33.432,0.405,0.500
20050702,200408,344154,32.237388,-118.759284,15.805,33.437,0.317,0.368
20050702,201338,344724,32.222342,-118.786830,15.937,33.460,0.317,0.362
20050702,202524,345430,32.205543,-118.822110,15.699,33.387,0.329,0.380
20050702,203525,346031,32.193135,-118.852729,15.745,33.327,0.331,0.389
20050702,204540,346646,32.184413,-118.874437,16.107,33.277,0.300,0.334
20050702,205555,347261,32.180047,-118.887695,16.205,33.292,0.301,0.336
20050702,210555,347861,32.178894,-118.888315,16.210,33.318,0.303,0.351
20050702,211611,348477,32.177652,-118.888327,16.223,33.320,0.306,0.351
20050702,212626,349092,32.176322,-118.888214,16.220,33.320,0.326,0.365
20050702,213626,349692,32.174932,-118.888261,16.226,33.320,0.329,0.377
20050702,214626,350292,32.173817,-118.888060,16.196,33.321,0.331,0.382
20050702,215641,350907,32.172558,-118.887446,16.204,33.319,0.339,0.386
20050702,220656,351522,32.171526,-118.887376,16.220,33.320,0.326,0.368
20050702,221656,352122,32.170407,-118.887188,16.209,33.320,0.336,0.375
20050702,222656,352722,32.169387,-118.888042,16.192,33.319,0.344,0.377
20050702,223656,353323,32.168998,-118.890741,16.225,33.314,0.355,0.386
20050702,224712,353938,32.168810,-118.893656,16.216,33.313,0.386,0.427
20050702,225727,354553,32.168866,-118.897319,16.223,33.310,0.413,0.457
20050702,230727,355153,32.169098,-118.901179,16.227,33.312,0.424,0.470
20050702,231727,355753,32.168982,-118.904115,16.252,33.315,0.423,0.467
20050702,232727,356353,32.160162,-118.923220,16.308,33.320,0.461,0.520
20050702,233742,356968,32.145762,-118.953007,15.789,33.424,0.368,0.363
20050702,234757,357583,32.130502,-118.982656,15.674,33.500,0.385,0.383
20050702,235758,358184,32.116109,-119.011952,15.577,33.441,0.447,0.472
20050703,000758,358784,32.101796,-119.040626,15.791,33.357,0.521,0.580
20050703,001813,359399,32.087573,-119.070258,15.964,33.301,0.644,0.759
20050703,002828,360014,32.075053,-119.100528,15.953,33.273,0.590,0.668
20050703,003843,360629,32.063053,-119.131021,16.122,33.235,0.510,0.538
20050703,004913,361259,32.050954,-119.162375,16.036,33.278,0.583,0.641
20050703,005928,361874,32.036721,-119.192053,15.850,33.335,0.862,1.086
20050703,010928,362474,32.020168,-119.219528,15.710,33.365,0.894,1.144
20050703,011929,363075,32.012954,-119.233462,15.711,33.324,1.000,1.338
20050703,012930,363676,32.011904,-119.234412,15.714,33.387,1.032,1.393
20050703,013945,364291,32.011099,-119.235989,15.674,33.403,1.019,1.343
20050703,015000,364906,32.010282,-119.238008,15.556,33.442,0.915,1.150
20050703,020000,365506,32.009237,-119.239970,15.431,33.473,0.596,0.616
20050703,021000,366106,32.007958,-119.241393,15.431,33.480,0.651,0.694
20050703,022000,366706,32.006369,-119.242068,15.497,33.518,0.710,0.775
20050703,023015,367321,32.003530,-119.243337,15.491,33.516,0.740,0.814
20050703,024030,367936,32.000408,-119.245957,15.547,33.520,0.609,0.611
20050703,025030,368537,31.997310,-119.249367,15.519,33.518,0.679,0.710
20050703,030031,369137,31.996865,-119.252568,15.486,33.497,0.714,0.756
20050703,031046,369752,31.997218,-119.254849,15.533,33.497,0.668,0.688
20050703,032101,370367,31.993498,-119.259793,15.572,33.490,0.671,0.690
20050703,033116,370982,31.980608,-119.281681,15.600,33.390,0.839,0.948
20050703,034131,371597,31.963457,-119.311807,16.453,33.223,0.484,0.439
20050703,035131,372197,31.947121,-119.341132,16.796,33.229,0.308,0.233
20050703,040146,372812,31.930643,-119.371505,16.869,33.242,0.310,0.236
20050703,041201,373427,31.914485,-119.402437,16.764,33.207,0.335,0.262
20050703,042201,374028,31.899448,-119.433444,16.797,33.217,0.320,0.246
20050703,043202,374628,31.885692,-119.465670,16.730,33.251,0.384,0.318
20050703,044217,375243,31.871569,-119.498899,16.665,33.224,0.328,0.255
20050703,045232,375858,31.858210,-119.532596,16.774,33.227,0.310,0.235
20050703,050247,376473,31.848039,-119.564509,16.792,33.196,0.304,0.229
20050703,051317,377103,31.845196,-119.572872,16.816,33.203,0.294,0.219
20050703,052347,377733,31.843907,-119.572868,16.812,33.226,0.290,0.215
20050703,053402,378348,31.842533,-119.573014,16.823,33.226,0.287,0.212
20050703,054402,378948,31.840193,-119.573627,16.829,33.227,0.288,0.212
20050703,055403,379549,31.837751,-119.574598,16.828,33.227,0.291,0.215
20050703,060418,380164,31.834913,-119.575748,16.821,33.227,0.293,0.218
20050703,061433,380779,31.832507,-119.576990,16.822,33.227,0.289,0.213
20050703,062448,381394,31.829809,-119.578843,16.822,33.227,0.290,0.215
20050703,063503,382009,31.827773,-119.582014,16.809,33.226,0.298,0.223
20050703,064518,382624,31.825748,-119.584902,16.818,33.227,0.290,0.214
20050703,065548,383254,31.824527,-119.589570,16.812,33.227,0.296,0.221
20050703,070619,383885,31.823288,-119.593890,16.833,33.226,0.291,0.216
20050703,071649,384515,31.819118,-119.599569,16.841,33.226,0.292,0.217
20050703,072704,385130,31.804799,-119.622747,16.847,33.228,0.292,0.217
20050703,073705,385731,31.787460,-119.652852,16.810,33.229,0.317,0.242
20050703,074720,386346,31.769630,-119.683289,17.075,33.225,0.258,0.183
20050703,075735,386961,31.752276,-119.713108,17.255,33.254,0.216,0.143
20050703,080750,387576,31.735533,-119.742948,17.170,33.240,0.235,0.161
20050703,081805,388191,31.719099,-119.773363,17.228,33.249,0.229,0.155
20050703,082805,388791,31.704142,-119.803340,17.426,33.299,0.221,0.148
20050703,083820,389406,31.689246,-119.833830,17.438,33.307,0.225,0.152
20050703,084850,390036,31.674138,-119.865237,17.205,33.247,0.244,0.169
20050703,085905,390651,31.659467,-119.896064,17.081,33.204,0.253,0.178
20050703,090921,391267,31.644967,-119.926933,17.087,33.204,0.262,0.186
20050703,091936,391882,31.630594,-119.958069,17.093,33.203,0.265,0.190
20050703,092936,392482,31.617294,-119.988715,17.104,33.205,0.273,0.197
20050703,093936,393082,31.604409,-120.019503,17.086,33.204,0.259,0.184
20050703,094936,393682,31.591773,-120.050036,17.088,33.202,0.255,0.180
20050703,095951,394297,31.579207,-120.081320,17.126,33.204,0.249,0.174
20050703,101006,394913,31.566766,-120.112736,17.118,33.206,0.257,0.182
20050703,102007,395513,31.554624,-120.143302,17.095,33.208,0.270,0.195
20050703,103007,396113,31.542106,-120.173749,17.079,33.209,0.268,0.192
20050703,104007,396713,31.529045,-120.203716,17.068,33.208,0.266,0.190
20050703,105022,397328,31.517366,-120.232916,17.082,33.167,0.268,0.192
20050703,110052,397958,31.514247,-120.241003,17.108,33.204,0.275,0.199
20050703,111122,398588,31.512481,-120.242143,17.102,33.213,0.276,0.200
20050703,112137,399203,31.510684,-120.242981,17.091,33.212,0.270,0.195
20050703,113137,399803,31.509083,-120.243432,17.091,33.213,0.269,0.194
20050703,114138,400404,31.507370,-120.243852,17.090,33.213,0.269,0.193
20050703,115138,401004,31.506610,-120.245216,17.093,33.213,0.267,0.192
20050703,120138,401604,31.507237,-120.247408,17.097,33.214,0.263,0.188
20050703,121153,402219,31.507678,-120.249628,17.104,33.215,0.261,0.186
20050703,122208,402834,31.508639,-120.252230,17.106,33.217,0.259,0.184
20050703,123208,403434,31.509944,-120.254958,17.114,33.218,0.254,0.179
20050703,124208,404034,31.511475,-120.258917,17.123,33.221,0.257,0.182
20050703,125208,404634,31.512649,-120.263110,17.133,33.223,0.258,0.183
20050703,130209,405235,31.513099,-120.266398,17.147,33.226,0.255,0.180
20050703,131224,405850,31.513401,-120.269439,17.166,33.229,0.248,0.173
20050703,132239,406465,31.513695,-120.274091,17.175,33.232,0.254,0.180
20050703,133239,407065,31.505793,-120.293137,17.186,33.241,0.266,0.193
20050703,134240,407666,31.490907,-120.321019,17.141,33.238,0.276,0.204
20050703,135255,408281,31.474174,-120.351235,17.099,33.204,0.259,0.187
20050703,140310,408896,31.457738,-120.381332,17.141,33.201,0.217,0.147
20050703,141310,409496,31.441870,-120.410618,17.191,33.205,0.242,0.175
20050703,142325,410111,31.425653,-120.440643,17.327,33.198,0.252,0.186
20050703,143355,410741,31.409056,-120.471008,17.337,33.184,0.228,0.163
20050703,144410,411356,31.392926,-120.500086,17.502,33.176,0.208,0.145
20050703,145411,411957,31.377262,-120.528418,17.579,33.190,0.211,0.148
20050703,150426,412572,31.364156,-120.551914,17.675,33.162,0.206,0.144
20050703,151441,413187,31.350511,-120.576613,17.761,33.220,0.198,0.140
20050703,152456,413802,31.335448,-120.606550,17.831,33.218,0.184,0.130
20050703,153511,414417,31.321140,-120.637334,17.771,33.206,0.187,0.134
20050703,154526,415032,31.306617,-120.667836,17.552,33.167,0.194,0.144
20050703,155541,415647,31.292168,-120.698269,17.384,33.168,0.244,0.201
20050703,160541,416247,31.277902,-120.727944,17.036,33.105,0.244,0.208
20050703,161542,416848,31.263090,-120.757501,17.050,33.111,0.338,0.320
20050703,162542,417448,31.246646,-120.786335,17.246,33.144,0.246,0.213
20050703,163557,418063,31.229970,-120.816395,17.113,33.148,0.234,0.197
20050703,164612,418678,31.213715,-120.846809,17.028,33.102,0.204,0.169
20050703,165612,419278,31.198403,-120.876494,17.346,33.133,0.183,0.141
20050703,170627,419893,31.184466,-120.907674,17.317,33.133,0.180,0.141
20050703,171642,420508,31.180541,-120.920432,17.296,33.100,0.180,0.143
20050703,172657,421123,31.181043,-120.920792,17.301,33.126,0.180,0.145
20050703,173712,421738,31.180867,-120.921301,17.313,33.127,0.179,0.150
20050703,174713,422339,31.180668,-120.921468,17.325,33.126,0.179,0.144
20050703,175728,422954,31.181017,-120.922184,17.337,33.136,0.178,0.142
20050703,180743,423569,31.181221,-120.922657,17.347,33.136,0.178,0.152
20050703,181758,424184,31.181242,-120.922571,17.365,33.137,0.169,0.150
20050703,182813,424799,31.183459,-120.924425,17.388,33.138,0.157,0.137
20050703,183828,425414,31.184945,-120.926645,17.409,33.140,0.156,0.134
20050703,184843,426029,31.185680,-120.929067,17.414,33.141,0.157,0.136
20050703,185843,426629,31.187497,-120.932336,17.425,33.141,0.154,0.139
20050703,190844,427230,31.189346,-120.935310,17.444,33.141,0.152,0.135
20050703,191845,427831,31.189973,-120.939282,17.471,33.133,0.162,0.144
20050703,192900,428446,31.178072,-120.959670,17.591,33.146,0.163,0.156
20050703,193915,429061,31.161644,-120.987940,17.845,33.190,0.151,0.147
20050703,194915,429661,31.145766,-121.015522,18.083,33.212,0.150,0.141
20050703,195915,430261,31.129983,-121.043040,18.457,33.278,0.137,0.119
20050703,200930,430876,31.113970,-121.071198,18.552,33.308,0.138,0.118
20050703,201945,431491,31.097872,-121.099583,18.589,33.323,0.137,0.119
20050703,202945,432092,31.082419,-121.127538,18.617,33.337,0.143,0.117
20050703,204001,432707,31.066843,-121.156515,18.561,33.313,0.146,0.122
20050703,205016,433322,31.051822,-121.185244,18.412,33.272,0.156,0.139
20050703,210031,433937,31.037065,-121.213855,18.181,33.220,0.175,0.159
20050703,211101,434567,31.022019,-121.243348,18.056,33.206,0.179,0.168
20050703,212116,435182,31.006983,-121.272073,18.037,33.201,0.180,0.173
20050703,213116,435782,30.991784,-121.300257,18.088,33.203,0.209,0.203
20050703,214116,436382,30.975488,-121.328472,18.112,33.205,0.206,0.192
20050703,215116,436983,30.958326,-121.356243,18.093,33.203,0.186,0.162
20050703,220117,437583,30.941563,-121.383838,18.059,33.205,0.176,0.159
20050703,221132,438198,30.925085,-121.412821,18.031,33.210,0.173,0.153
20050703,222147,438813,30.909556,-121.442653,18.054,33.205,0.172,0.146
20050703,223147,439413,30.895187,-121.472476,18.107,33.202,0.174,0.147
20050703,224147,440013,30.881184,-121.502521,18.104,33.207,0.170,0.136
20050703,225147,440613,30.868124,-121.532783,18.101,33.205,0.173,0.138
20050703,230147,441213,30.856453,-121.563672,18.096,33.206,0.163,0.131
20050703,231202,441829,30.848610,-121.585926,18.142,33.158,0.173,0.136
20050703,232218,442444,30.848319,-121.588420,18.146,33.200,0.174,0.139
20050703,233218,443044,30.848071,-121.589645,18.148,33.201,0.176,0.137
20050703,234233,443659,30.847921,-121.590969,18.154,33.201,0.174,0.135